STARLINK-4759, 53829

Orbit data source: Space-Track

STARLINK-4759, 53829 is a payload satellite owned by SpaceX/Seattle (US) in LEO that was launched on Mon, 19 Sep 2022 UTC via an FALCON 9 launch vehicle from the Air Force Eastern Test Range (AFETR). Payload-class satellites include a variety of spacecraft equipped with specific instruments for various scientific and technological missions. These include communications satellites like Starlink; space stations such as the ISS; scientific satellites like the Hubble; Earth observation satellites from companies like Planet Labs, Umbra, and HawkEye 360; GPS; miniature CubeSats for education and research; and military/defense satellites.

Loading next visibility...
Identifier
53829, 2022-114M
Orbit
LEO
Country
Flag of USUS
Related business
Manufacturer
SpaceX/Seattle
Mission
Operational Commercial Communications
Bus & Motor
STARLINK, Unknown motor
Mass
305 kg wet, ~290 kg dry
Launch date (UTC)
2022-09-19 (4 years ago)
Launch vehicle
FALCON 9
Launch site
Air Force Eastern Test Range (AFETR)
Object type
Payload
Rocket body
Debris
Shape & HBR
Box + 1 Pan, 10.1 m
Radar Cross Section
13.562 m², Large (>1 m²)

Expand to show TLE details & history
Last TLE update: 2 days ago

TLE from 2 days ago
0 STARLINK-4759
1 53829U 22114M   26171.37897926 -.00000399  00000-0 -69723-5 0  9990
2 53829  53.1581 203.0374 0001023  77.8660 282.2445 15.08832403208338
Epoch: 2026-06-20T09:05Z
TLE epoch observation values (Epoch: 2026-06-20T09:05:43.808Z)
Latitude
-0.00008°
Longitude
158.01036°
Altitude
540.508 km
Speed
7.593 km/s
True Right ascension
13h 32m 08s
True Declination
0° 00' 00"
Sunlit
Object was in daylight at epoch
Visualization orbit readout
Latitude
Unknown
Longitude
Unknown
Altitude
Unknown
Speed
Unknown
Apparent Right ascension
Unknown
Apparent Declination
Unknown
Sunlit
N/A
Visualization observer readout
Local Sidereal Time
21:28:40
Azimuth
Unknown
Elevation
Unknown
Doppler factor
Unknown
Orbital elements
Apogee altitude
540.729 km
Perigee altitude
539.313 km
Semi-major axis
6,918.158 km
Eccentricity
0.0001
Inclination
53.1581°
RAAN
203.0374°
Arg. of periapsis
77.866°
True anomaly
282.23304°
Mean anomaly
282.2445°
Eccentric anomaly
282.23877°
Mean motion
3.77188 °/min
Orbital period
95.44 mins
BSTAR
-0.0000069723
Loading maneuver chart data...
Computing Atmospheric mass density...
Loading historical data...
Loading historical data...
Loading historical data...
Loading historical data...
Loading historical data...
Loading historical data...
Loading historical data...

Documentation

Showing up to 5 results
|